TimeHST,TemperatureF,Dew PointF,Humidity,Sea Level PressureIn,VisibilityMPH,Wind Direction,Wind SpeedMPH,Gust SpeedMPH,PrecipitationIn,Events,Conditions,WindDirDegrees,DateUTC
12:53 AM,72.0,64.9,78,30.05,10.0,South,5.8,-,N/A,,Partly Cloudy,190,2012-12-05 10:53:00
1:53 AM,72.0,64.0,76,30.06,10.0,South,4.6,-,N/A,,Clear,190,2012-12-05 11:53:00
2:53 AM,70.0,64.0,81,30.05,10.0,SSW,3.5,-,N/A,,Clear,200,2012-12-05 12:53:00
4:53 AM,69.1,64.0,84,30.06,10.0,Calm,Calm,-,N/A,,Clear,0,2012-12-05 14:53:00
5:53 AM,69.1,63.0,81,30.07,10.0,Calm,Calm,-,N/A,,Clear,0,2012-12-05 15:53:00
6:53 AM,68.0,62.1,81,30.09,10.0,Calm,Calm,-,N/A,,Mostly Cloudy,0,2012-12-05 16:53:00
7:53 AM,71.1,63.0,75,30.11,10.0,SSW,5.8,-,N/A,,Partly Cloudy,210,2012-12-05 17:53:00
8:53 AM,75.0,66.0,73,30.13,10.0,SSW,5.8,-,N/A,,Mostly Cloudy,200,2012-12-05 18:53:00
9:53 AM,79.0,68.0,69,30.12,10.0,South,3.5,-,N/A,,Scattered Clouds,190,2012-12-05 19:53:00
10:53 AM,82.0,69.1,65,30.11,10.0,Variable,6.9,-,N/A,,Mostly Cloudy,0,2012-12-05 20:53:00
11:53 AM,81.0,68.0,65,30.08,10.0,SE,10.4,-,N/A,,Mostly Cloudy,130,2012-12-05 21:53:00
12:53 PM,81.0,70.0,69,30.05,10.0,ESE,9.2,-,N/A,,Overcast,110,2012-12-05 22:53:00
1:53 PM,78.1,70.0,76,30.04,10.0,ESE,10.4,-,N/A,,Overcast,110,2012-12-05 23:53:00
2:53 PM,77.0,69.1,76,30.03,10.0,SE,9.2,-,N/A,,Overcast,140,2012-12-06 00:53:00
3:53 PM,77.0,69.1,76,30.02,10.0,SE,11.5,-,N/A,,Overcast,130,2012-12-06 01:53:00
4:53 PM,75.9,69.1,79,30.04,10.0,SSE,5.8,-,N/A,,Scattered Clouds,150,2012-12-06 02:53:00
5:53 PM,75.0,69.1,82,30.04,10.0,South,3.5,-,N/A,,Clear,170,2012-12-06 03:53:00
6:53 PM,73.9,69.1,85,30.06,10.0,Calm,Calm,-,N/A,,Partly Cloudy,0,2012-12-06 04:53:00
7:53 PM,73.0,68.0,84,30.07,10.0,Calm,Calm,-,N/A,,Clear,0,2012-12-06 05:53:00
8:53 PM,72.0,66.9,84,30.09,10.0,SSW,3.5,-,N/A,,Scattered Clouds,210,2012-12-06 06:53:00
9:53 PM,72.0,64.9,78,30.08,10.0,SSW,5.8,-,N/A,,Mostly Cloudy,200,2012-12-06 07:53:00
10:53 PM,71.1,64.0,78,30.06,10.0,SSW,4.6,-,N/A,,Clear,200,2012-12-06 08:53:00
11:53 PM,70.0,63.0,78,30.04,10.0,SSW,3.5,-,N/A,,Clear,210,2012-12-06 09:53:00